Location: Smithsonian NASM Public Observatory
(38.8879°N, 77.0185°W)
Time: 09:07:27
(UTC-05:00)

Daily predictions for brighter satellites

Satellite Brightness Start Highest point End
(mag) Time Altitude Azimuth Time Altitude Azimuth Time Altitude Azimuth
Cosmos 972 Rocket 3.9 17:11:05 10° N 17:15:56 57° ENE 17:20:47 10° SSE
Cosmos 1340 2.8 17:12:57 10° S 17:16:43 83° W 17:20:30 10° N
ALOS 3.9 17:14:54 10° E 17:17:04 13° ENE 17:19:13 10° NE
SMAP 3.1 17:21:21 10° SSE 17:25:55 60° ENE 17:30:31 10° N
USA 161 3.8 17:25:49 10° NW 17:26:55 13° WNW 17:28:02 10° WSW
Cosmos 2233 Rocket 4.1 17:21:24 10° S 17:27:32 59° E 17:33:37 10° NNE
Cosmos 1763 Rocket 3.7 17:24:26 10° N 17:29:29 48° ENE 17:34:26 10° SE
ERS-2 3.2 17:27:25 10° ESE 17:30:24 24° ENE 17:33:23 10° NNE
Cosmos 1908 Rocket 4.2 17:26:39 10° NNE 17:30:36 33° ENE 17:34:30 10° SE
Cosmos 1733 Rocket 3.1 17:28:31 10° N 17:32:59 90° ENE 17:37:26 10° S
Cosmos 1844 Rocket 3.7 17:28:03 10° SW 17:33:27 46° WNW 17:38:52 10° N
AQUARIUS 4.1 17:29:48 10° SSE 17:34:16 72° ENE 17:38:45 10° N
Cosmos 2242 Rocket 4.1 17:30:42 10° SSW 17:35:13 65° W 17:39:45 10° N
CZ-2C R/B 4.2 17:34:07 10° SSW 17:38:41 37° W 17:43:25 10° NNW
COSMOS 2406 3.8 17:33:18 10° NNW 17:38:58 64° WSW 17:44:35 10° S
Cosmos 1814 Rocket 4.0 17:35:58 10° NNW 17:41:20 71° ENE 17:46:39 10° SSE
Cosmos 1862 Rocket 3.9 17:37:47 10° SSW 17:42:11 72° W 17:46:39 10° N
Sich 1 Rocket 4.1 17:38:29 10° N 17:42:36 37° ENE 17:46:45 10° SSE
Meteor 1-14 Rocket 4.2 17:38:41 10° N 17:44:20 64° E 17:49:50 10° SSE
CZ-4C R/B 4.1 17:41:36 10° N 17:46:40 21° NE 17:50:24 15° ENE
SL-27 R/B 3.2 17:45:33 10° N 17:48:30 28° ENE 17:51:26 10° SE
IRS-1A Rocket 4.3 17:43:46 10° SSE 17:49:33 71° ENE 17:55:16 10° N
Ariane Rocket 3.5 17:48:35 10° S 17:53:37 64° WSW 17:58:41 10° NNW
FENGYUN 3A 4.3 17:49:22 10° SE 17:54:08 33° ENE 17:58:55 10° N
USA 234 3.4 17:52:30 13° NE 17:58:21 62° SE 18:04:48 10° SSW
COSMOS 2455 3.6 17:52:38 10° SW 17:58:28 51° WNW 18:04:20 10° NNE
Cosmos 540 Rocket 4.0 17:54:15 10° N 17:58:59 34° ENE 18:03:38 10° SE
Okean 1-7 3.3 17:57:09 10° SSE 18:01:18 44° E 18:05:29 10° NNE
CZ-4 R/B 4.3 17:57:49 10° SSE 18:01:58 71° ENE 18:06:07 10° N
Cosmos 2297 4.0 17:56:39 10° S 18:02:01 44° ESE 18:06:35 14° NE
Cosmos 1833 Rocket 3.1 17:57:53 10° N 18:03:06 37° ENE 18:08:17 10° SE
Cosmos 841 Rocket 3.4 17:58:50 10° NNW 18:04:08 76° ENE 18:09:23 10° SSE
Cosmos 1633 2.7 18:01:43 10° N 18:05:17 48° E 18:08:51 10° SSE
MTI 3.7 18:03:19 10° NNE 18:06:33 90° WNW 18:09:46 10° SSW
CZ-4 R/B 1.9 18:02:59 10° S 18:06:49 59° W 18:10:37 10° NNW
Cosmos 2278 Rocket 2.6 18:02:12 10° SSW 18:07:49 67° WNW 18:13:30 10° NNE
Lacrosse 5 4.2 18:06:43 10° NW 18:08:34 12° NNW 18:10:26 10° N
Cosmos 1486 Rocket 4.2 18:04:00 10° SSW 18:09:11 75° WNW 18:14:27 10° NNE
Cosmos 44 Rocket 4.4 18:08:59 10° N 18:12:58 24° NE 18:13:12 24° NE
MOS 1 4.2 18:08:34 10° SSE 18:14:14 74° ENE 18:19:57 10° N
Cosmos 1782 Rocket 3.5 18:10:45 10° N 18:15:04 60° E 18:19:22 10° SSE
YAOGAN 1 2.9 18:15:03 10° S 18:19:21 66° W 18:23:39 10° NNW
COSMO-SKYMED 1 2.5 18:15:24 10° NNE 18:19:46 88° WNW 18:24:06 10° SSW
Cosmos 1072 Rocket 4.4 18:15:38 10° S 18:21:47 75° E 18:28:06 10° N
SPOT 3 Rocket 3.4 18:18:41 10° SSE 18:23:52 72° ENE 18:29:05 10° N
Cosmos 1354 Rocket 3.9 18:20:18 10° SSW 18:25:35 78° ESE 18:29:47 16° NNE
Cosmos 292 Rocket 4.3 18:22:18 10° N 18:26:26 36° ENE 18:26:26 36° ENE
Cosmos 1441 Rocket 4.0 18:23:35 10° SSE 18:26:30 35° SE 18:26:30 35° SE
BREEZE-M DEB (TANK) 2.5 18:25:36 10° WSW 18:27:39 46° NNW 18:27:47 46° NNW
Cosmos 1606 3.1 18:24:15 10° SSW 18:28:00 63° W 18:31:46 10° N
MONITOR-E 4.3 18:25:00 10° S 18:28:01 73° W 18:31:04 10° NNW
Nadezhda 4 Rocket 4.3 18:22:23 10° N 18:28:02 37° ENE 18:33:37 10° SE
Cosmos 2034 Rocket 4.1 18:22:10 10° SSE 18:28:21 56° E 18:34:33 10° NNE
Cosmos 2221 Rocket 3.5 18:27:38 10° S 18:32:02 89° W 18:36:17 11° N
EO 1 Del DPAF 3.9 18:30:40 10° N 18:34:25 55° WNW 18:38:09 10° SSW
NOAA 12 4.0 18:33:37 10° SSE 18:38:57 86° ENE 18:44:17 10° NNW
Meteor 2-6 Rocket 4.1 18:34:40 10° S 18:40:05 86° W 18:45:40 10° N
CENTAUR R/B 4.5 18:37:03 10° W 18:41:52 22° NW 18:47:10 10° NNE
Cosmos 1782 4.1 18:40:42 10° SSW 18:44:31 41° W 18:48:21 10° N
Cosmos 44 3.6 18:41:27 10° NNW 18:45:15 44° NNE 18:45:15 44° NNE
Cosmos 2082 Rocket 2.1 18:43:25 10° NNW 18:49:08 87° ENE 18:54:47 10° SSE
Meteor 2-20 4.3 18:46:42 10° N 18:52:48 75° E 18:58:50 10° SSE
ALOS 2.6 18:49:19 10° S 18:53:56 63° W 18:58:35 10° NNW
Okean 2 Rocket 3.2 18:49:35 10° N 18:54:08 77° W 18:58:38 10° S
Cosmos 1464 Rocket 4.4 18:51:14 10° SSW 18:57:16 62° W 19:03:22 10° N
FengYun 1-2 T 4.1 18:52:32 10° SSE 18:57:58 67° ENE 19:03:30 10° N
Thor Agena Rocket 3.4 18:59:06 68° ESE 18:59:06 68° ESE 19:04:01 10° S
Cosmos 405 Rocket 3.2 18:55:22 10° SSW 18:58:57 57° W 18:58:57 57° W
Meteor 1-27 Rocket 3.8 19:00:59 10° S 19:06:52 81° W 19:11:11 20° N
BREEZE-M R/B 4.3 19:20:29 10° WNW 19:22:51 39° WSW 19:22:51 39° WSW
CZ-4C R/B 2.9 19:29:05 10° NNW 19:35:39 70° NNE 19:35:39 70° NNE
Cosmos 968 Rocket 4.5 19:33:31 10° SSW 19:37:11 42° WSW 19:37:11 42° WSW
USA 234 4.1 19:39:52 37° N 19:41:09 41° NNW 19:47:10 10° W
Cosmos 1833 Rocket 4.4 19:42:04 10° NW 19:46:50 29° WSW 19:51:34 10° SSW
